Content
SEND FEEDBACK

Daily
Averages
Monthly
Summary
United States of America

ST. LOUIS, MISSOURI


Home > North America > United States > Missouri
Elevation: 163 meters     Latitude: 38 45N     Longitude: 090 22W

WEATHER
 
SELECT A DAY
Number of Records: 196,698;   Date Range: 1/1/95 - 9/22/14
 
SHARE

PRINT THIS DATA

[ ← Previous Day ]
WEATHER ALMANAC - 23 MAY, 2013
[ Next Day → ]
[ °F ]   °C
Weather ElementAverageHighLow
Temperature17.1 °C19 °C (4:24 pm)13.9 °C (10:54 pm)
Dewpoint12 °C14.4 °C (3:54 pm)9.4 °C (6:54 am)
Humidity72.3 %84 % (3:54 pm)62 % (8:54 am)
Barometer1018.3 hPa1023.4 hPa (11:54 pm)1011.9 hPa (1:54 am)
Wind Speed15 km/h24.1 km/h (4:31 pm)
Wind Gust35.2 km/h (8:54 am)
Weather ElementAverage
Visibility15.8 km
Wind DirectionWNW (275.9 °)

Weather ElementTotal
Precipitation---
Heating Degree Days1.9 (Base 18.3)
Growing Degree Days6.4 (Base 10)
Averaged from 32 records on 23 May, 2013
WEATHER CONDITIONS BREAKOUT
WIND DIRECTION BREAKOUT
WEATHER BY HOUR - 23 MAY, 2013
[ °F ]   °C
Local TimeTemperatureDewpointHumidityBarometerVisibilityWind DirectionWind SpeedGust SpeedPrecipitationEventsConditions
1:54 AM16.7 °C12.2 °C75 %1011.9 hPa16.1 kmWest (260°)9.3 km/hOvercast
2:54 AM16.7 °C12.2 °C75 %1011.9 hPa16.1 kmWest (260°)7.4 km/hOvercast
3:54 AM16.1 °C12.2 °C78 %1012.2 hPa16.1 kmWest (260°)7.4 km/hOvercast
4:54 AM16.7 °C11.1 °C70 %1012.5 hPa16.1 kmWest (280°)13 km/hOvercast
5:54 AM16.1 °C10.6 °C70 %1012.9 hPa16.1 kmWest (280°)13 km/hMostly Cloudy
6:54 AM16.1 °C9.4 °C64 %1014.2 hPa16.1 kmWNW (290°)22.2 km/hMostly Cloudy
7:54 AM16.1 °C9.4 °C64 %1014.6 hPa16.1 kmWest (280°)20.4 km/hMostly Cloudy
8:54 AM16.7 °C9.4 °C62 %1015.6 hPa16.1 kmWNW (290°)22.2 km/h35.2 km/hMostly Cloudy
9:35 AM17 °C11 °C68 %1016.3 hPa16.1 kmWest (280°)22.2 km/hOvercast
9:54 AM16.7 °C10.6 °C67 %1016.3 hPa16.1 kmWNW (290°)20.4 km/h33.3 km/hOvercast
10:54 AM17.2 °C11.1 °C67 %1015.9 hPa16.1 kmNW (310°)20.4 km/h31.5 km/hOvercast
11:54 AM17.2 °C12.2 °C72 %1017.6 hPa16.1 kmWNW (290°)22.2 km/hOvercast
12:54 PM17.2 °C12.2 °C72 %1018.3 hPa16.1 kmWNW (300°)20.4 km/hOvercast
1:54 PM17.8 °C12.8 °C73 %1018.6 hPa16.1 kmWest (270°)16.7 km/hOvercast
2:54 PM17.8 °C13.3 °C75 %1019.3 hPa11.3 kmWNW (300°)18.5 km/hOvercast
3:50 PM17 °C14 °C82 %1020 hPa14.5 kmWest (280°)11.1 km/h0 mmRainLight Rain
3:54 PM17.2 °C14.4 °C84 %1019.6 hPa11.3 kmWNW (300°)11.1 km/h0 mmOvercast
4:24 PM19 °C14 °C73 %1020 hPa16.1 kmNNW (330°)16.7 km/h0 mmOvercast
4:31 PM19 °C13 °C68 %1019.6 hPa16.1 kmNorth (360°)24.1 km/h0 mmOvercast
4:38 PM18 °C13 °C73 %1020 hPa16.1 kmNorth (350°)18.5 km/h0 mmOvercast
4:54 PM18.3 °C12.8 °C70 %1020 hPa16.1 kmNNW (330°)13 km/h0 mmOvercast
5:01 PM18 °C13 °C73 %1020.3 hPa16.1 kmNW (320°)16.7 km/hOvercast
5:10 PM18 °C13 °C73 %1020.3 hPa16.1 kmNNW (330°)18.5 km/hOvercast
5:52 PM18 °C13 °C73 %1020.7 hPa16.1 kmNorth (350°)13 km/h0 mmOvercast
5:54 PM17.8 °C12.8 °C73 %1020.7 hPa16.1 kmNorth (350°)13 km/h0 mmOvercast
6:54 PM17.8 °C12.2 °C70 %1021 hPa16.1 kmNorth (360°)11.1 km/hOvercast
7:36 PM18 °C12 °C68 %1021.3 hPa16.1 kmNorth (350°)5.6 km/hOvercast
7:54 PM17.8 °C12.2 °C70 %1021.3 hPa16.1 kmNorth (360°)7.4 km/hOvercast
8:54 PM16.7 °C11.7 °C72 %1021.3 hPa16.1 kmNNE (30°)9.3 km/hPartly Cloudy
9:54 PM15.6 °C11.7 °C78 %1022 hPa16.1 kmNE (50°)7.4 km/hClear
10:54 PM13.9 °C11.1 °C83 %1023 hPa16.1 kmEast (80°)7.4 km/hClear
11:54 PM14.4 °C10.6 °C78 %1023.4 hPa16.1 kmENE (60°)20.4 km/hClear
Hourly data recorded from KSUS, located 0 kilometers away from St. Louis, Missouri







STORIES FROM OUR PARTNERS